User: anonymous   Login
Location: Home
(42.5358°N, 72.7383°W)
Time: 23:10:23
(UTC-05:00)
Language:

Gurwin Techsat 1B - Orbit

View from above orbital plane
View from above orbital plane
View from above satellite
View from above satellite

Ground track
Ground track

The orbit data is extracted from the following two-line orbital elements,

1 25397U 98043D   22024.43106192  .00000022  00000-0  29445-4 0  9998
2 25397  98.8003 334.6674 0001855 129.9931 230.1410 14.23729127222939
Epoch (UTC): 24 January 2022 10:20:43
Eccentricity: 0.0001855
inclination: 98.8003°
perigee height: 811 km
apogee height: 814 km
right ascension of ascending node: 334.6674°
argument of perigee: 129.9931°
revolutions per day: 14.23729127
mean anomaly at epoch: 230.1410°
orbit number at epoch: 22293

The dashed part of the orbit path shows where the satellite is in the earth's shadow,  

DLR